Change the Weather History Date:

Wednesday, September 11, 2013

  Actual Average (KHTS) Record (KHTS)
Temperature  
Mean Temperature 82 °F 70 °F  
Max Temperature 95 °F 81 °F 96 °F (1931)
Min Temperature 69 °F 58 °F 43 °F (1943)
Degree Days  
Heating Degree Days 0 1  
Month to date heating degree days 4  
Since 1 July heating degree days 6  
Cooling Degree Days 17 5  
Month to date cooling degree days 73  
Year to date cooling degree days 1050  
Growing Degree Days 32 (Base 50)    
Moisture  
Dew Point 71 °F    
Average Humidity 79    
Maximum Humidity 100    
Minimum Humidity 44    
Precipitation  
Precipitation 0.00 in 0.10 in 1.24 in (1919)
Month to date precipitation 1.10  
Year to date precipitation 31.35  
Snow  
Snow 0.00 in - - ()
Month to date snowfall  
Since 1 September snowfall  
Snow Depth -    
Sea Level Pressure  
Sea Level Pressure 30.14 in    
Wind  
Wind Speed 2 mph (SW)    
Max Wind Speed 8 mph    
Max Gust Speed -    
Visibility 6 miles    
Events      
T = Trace of Precipitation, MM = Missing Value Source: NWS Daily Summary

Daily Weather History Graph

Daily Weather History Graph

Search for Another Location

Airport or City:

Trip Planner

Search our weather history database for the weather conditions in past years. The results will help you decide how hot, cold, wet, or windy it might be!

Date:

Astronomy

Sep. 11, 2013 Rise Set
Actual Time 7:06 AM EDT 7:42 PM EDT
Civil Twilight 6:39 AM EDT 8:09 PM EDT
Nautical Twilight 6:07 AM EDT 8:41 PM EDT
Astronomical Twilight 5:35 AM EDT 9:13 PM EDT
Moon 1:29 PM EDT (9/11) 11:41 PM EDT (9/11)
Length of Visible Light 13h 29m
Length of Day
12h 36m
Waxing Crescent, 38% of the Moon is Illuminated
Sep 11
Waxing Crescent
Sep 12
First Quarter
Sep 19
Full
Sep 26
Last Quarter
Oct 4
New

Hourly Weather History & Observations

Time (EDT) Temp. Heat Index Dew Point Humidity Pressure Visibility Wind Dir Wind Speed Gust Speed Precip Events Conditions
12:15 AM 73.4 °F - 71.6 °F 94% 30.18 in 4.0 mi Calm Calm - N/A   Clear
12:35 AM 73.4 °F - 71.6 °F 94% 30.18 in 4.0 mi Calm Calm - N/A   Clear
12:55 AM 71.6 °F - 71.6 °F 100% 30.17 in 4.0 mi Calm Calm - N/A   Clear
1:15 AM 71.6 °F - 71.6 °F 100% 30.17 in 5.0 mi Calm Calm - N/A   Clear
1:35 AM 71.6 °F - 71.6 °F 100% 30.17 in 4.0 mi Calm Calm - N/A   Clear
1:55 AM 71.6 °F - 69.8 °F 94% 30.18 in 3.0 mi Calm Calm - N/A   Clear
2:15 AM 71.6 °F - 69.8 °F 94% 30.17 in 4.0 mi Calm Calm - N/A   Clear
2:35 AM 71.6 °F - 69.8 °F 94% 30.17 in 4.0 mi Calm Calm - N/A   Clear
2:55 AM 71.6 °F - 69.8 °F 94% 30.17 in 4.0 mi Calm Calm - N/A   Clear
3:15 AM 71.6 °F - 69.8 °F 94% 30.16 in 4.0 mi Calm Calm - N/A   Clear
3:35 AM 71.6 °F - 69.8 °F 94% 30.16 in 4.0 mi Calm Calm - N/A   Clear
3:55 AM 71.6 °F - 69.8 °F 94% 30.16 in 4.0 mi Calm Calm - N/A   Scattered Clouds
4:15 AM 71.6 °F - 69.8 °F 94% 30.16 in 4.0 mi Calm Calm - N/A   Clear
4:35 AM 71.6 °F - 69.8 °F 94% 30.16 in 4.0 mi Calm Calm - N/A   Clear
4:55 AM 71.6 °F - 69.8 °F 94% 30.16 in 4.0 mi Calm Calm - N/A   Clear
5:15 AM 69.8 °F - 69.8 °F 100% 30.17 in 5.0 mi Calm Calm - N/A   Clear
5:35 AM 69.8 °F - 69.8 °F 100% 30.17 in 4.0 mi Calm Calm - N/A   Clear
5:55 AM 69.8 °F - 69.8 °F 100% 30.17 in 5.0 mi Calm Calm - N/A   Clear
6:15 AM 69.8 °F - 68.0 °F 94% 30.18 in 4.0 mi Calm Calm - N/A   Clear
6:35 AM 69.8 °F - 68.0 °F 94% 30.18 in 5.0 mi Calm Calm - N/A   Scattered Clouds
6:55 AM 69.8 °F - 68.0 °F 94% 30.18 in 4.0 mi Calm Calm - N/A   Mostly Cloudy
7:15 AM 69.8 °F - 68.0 °F 94% 30.19 in 2.5 mi Calm Calm - N/A   Scattered Clouds
7:35 AM 69.8 °F - 69.8 °F 100% 30.19 in 3.0 mi Calm Calm - N/A   Clear
7:55 AM 71.6 °F - 69.8 °F 94% 30.19 in 4.0 mi Calm Calm - N/A   Scattered Clouds
8:15 AM 71.6 °F - 69.8 °F 94% 30.20 in 5.0 mi Calm Calm - N/A   Scattered Clouds
8:35 AM 73.4 °F - 71.6 °F 94% 30.20 in 5.0 mi Calm Calm - N/A   Scattered Clouds
8:55 AM 77.0 °F - 71.6 °F 83% 30.20 in 5.0 mi Calm Calm - N/A   Scattered Clouds
9:15 AM 78.8 °F - 71.6 °F 78% 30.20 in 5.0 mi SW 4.6 mph - N/A   Haze
9:35 AM 78.8 °F - 73.4 °F 83% 30.20 in 7.0 mi SW 4.6 mph - N/A   Scattered Clouds
9:55 AM 80.6 °F 85.4 °F 73.4 °F 79% 30.20 in 7.0 mi WSW 3.5 mph - N/A   Scattered Clouds
10:15 AM 84.2 °F 90.9 °F 73.4 °F 70% 30.20 in 7.0 mi WSW 5.8 mph - N/A   Mostly Cloudy
10:35 AM 82.4 °F 87.2 °F 71.6 °F 70% 30.20 in 10.0 mi WSW 5.8 mph - N/A   Overcast
10:55 AM 82.4 °F 87.2 °F 71.6 °F 70% 30.20 in 10.0 mi WSW 3.5 mph - N/A   Mostly Cloudy
11:15 AM 86.0 °F 91.8 °F 71.6 °F 62% 30.19 in 10.0 mi West 5.8 mph - N/A   Scattered Clouds
11:35 AM 86.0 °F 91.8 °F 71.6 °F 62% 30.19 in 10.0 mi WSW 6.9 mph - N/A   Clear
11:55 AM 89.6 °F 96.2 °F 71.6 °F 55% 30.18 in 7.0 mi WSW 6.9 mph - N/A   Clear
12:15 PM 89.6 °F 96.2 °F 71.6 °F 55% 30.17 in 7.0 mi West 5.8 mph - N/A   Scattered Clouds
12:35 PM 91.4 °F 98.4 °F 71.6 °F 52% 30.16 in 7.0 mi SW 6.9 mph - N/A   Scattered Clouds
12:55 PM 89.6 °F 96.2 °F 71.6 °F 55% 30.16 in 7.0 mi WSW 4.6 mph - N/A   Scattered Clouds
1:15 PM 89.6 °F 96.2 °F 71.6 °F 55% 30.15 in 7.0 mi WSW 6.9 mph - N/A   Mostly Cloudy
1:35 PM 91.4 °F 98.4 °F 71.6 °F 52% 30.13 in 7.0 mi WSW 6.9 mph - N/A   Scattered Clouds
1:55 PM 91.4 °F 98.4 °F 71.6 °F 52% 30.13 in 7.0 mi SW 6.9 mph - N/A   Scattered Clouds
2:15 PM 89.6 °F 96.2 °F 71.6 °F 55% 30.13 in 7.0 mi West 3.5 mph - N/A   Mostly Cloudy
2:35 PM 93.2 °F 100.5 °F 71.6 °F 49% 30.12 in 10.0 mi West 6.9 mph - N/A   Scattered Clouds
2:55 PM 93.2 °F 100.5 °F 71.6 °F 49% 30.10 in 7.0 mi WSW 5.8 mph - N/A   Scattered Clouds
3:15 PM 93.2 °F 100.5 °F 71.6 °F 49% 30.10 in 7.0 mi WSW 8.1 mph - N/A   Scattered Clouds
3:35 PM 95.0 °F 101.3 °F 69.8 °F 44% 30.08 in 10.0 mi WSW 5.8 mph - N/A   Scattered Clouds
3:55 PM 91.4 °F 100.1 °F 73.4 °F 55% 30.09 in 10.0 mi North 4.6 mph - N/A   Scattered Clouds
4:15 PM 91.4 °F 98.4 °F 71.6 °F 52% 30.10 in 7.0 mi NNE 4.6 mph - N/A   Mostly Cloudy
4:35 PM 82.4 °F 85.4 °F 68.0 °F 62% 30.10 in 10.0 mi NE 6.9 mph - N/A   Overcast
4:55 PM 80.6 °F 83.2 °F 68.0 °F 65% 30.10 in 7.0 mi NE 3.5 mph - N/A   Mostly Cloudy
5:15 PM 82.4 °F 85.4 °F 68.0 °F 62% 30.08 in 10.0 mi East 3.5 mph - N/A   Clear
5:35 PM 84.2 °F 87.3 °F 68.0 °F 58% 30.10 in 10.0 mi East 3.5 mph - N/A   Clear
5:55 PM 84.2 °F 88.4 °F 69.8 °F 62% 30.10 in 10.0 mi ESE 5.8 mph - N/A   Clear
6:15 PM 82.4 °F 87.2 °F 71.6 °F 70% 30.09 in 10.0 mi SSW 4.6 mph - N/A   Clear
6:35 PM 82.4 °F 87.2 °F 71.6 °F 70% 30.09 in 10.0 mi East 4.6 mph - N/A   Clear
6:55 PM 80.6 °F 84.6 °F 71.6 °F 74% 30.08 in 10.0 mi Calm Calm - N/A   Clear
7:15 PM 80.6 °F 84.6 °F 71.6 °F 74% 30.08 in 7.0 mi SE 3.5 mph - N/A   Clear
7:35 PM 78.8 °F - 71.6 °F 78% 30.08 in 7.0 mi Calm Calm - N/A   Clear
7:55 PM 78.8 °F - 71.6 °F 78% 30.08 in 7.0 mi Calm Calm - N/A   Clear
8:15 PM 78.8 °F - 69.8 °F 74% 30.08 in 10.0 mi Calm Calm - N/A   Clear
8:35 PM 75.2 °F - 71.6 °F 89% 30.08 in 7.0 mi Calm Calm - N/A   Clear
8:55 PM 75.2 °F - 71.6 °F 89% 30.09 in 7.0 mi Calm Calm - N/A   Clear
9:15 PM 73.4 °F - 69.8 °F 88% 30.09 in 7.0 mi Calm Calm - N/A   Clear
9:35 PM 73.4 °F - 69.8 °F 88% 30.08 in 7.0 mi Calm Calm - N/A   Clear
9:55 PM 77.0 °F - 71.6 °F 83% 30.08 in 7.0 mi Calm Calm - N/A   Clear
10:15 PM 73.4 °F - 69.8 °F 88% 30.08 in 7.0 mi Calm Calm - N/A   Clear
10:35 PM 73.4 °F - 69.8 °F 88% 30.08 in 7.0 mi East 3.5 mph - N/A   Clear
10:55 PM 73.4 °F - 69.8 °F 88% 30.08 in 5.0 mi Calm Calm - N/A   Clear
11:15 PM 73.4 °F - 69.8 °F 88% 30.08 in 7.0 mi Calm Calm - N/A   Clear
11:35 PM 71.6 °F - 69.8 °F 94% 30.08 in 5.0 mi Calm Calm - N/A   Clear
11:55 PM 73.4 °F - 69.8 °F 88% 30.07 in 7.0 mi Calm Calm - N/A   Clear